Location: Waco, TX
(31.5480°N, 97.1670°W)
Time: 04:04:07
(UTC-06:00)

ISS - Pass Details

Date: 23 November 2017
Orbit: 401 x 407 km, 51.6° (Epoch: 18 November)

Event Time Altitude Azimuth Distance (km) Brightness Sun altitude
Rises 03:27:11 0° 322° (NW) 2,313 - -45.8°
Reaches altitude 10° 03:29:21 10° 330° (NNW) 1,451 - -45.3°
Maximum altitude 03:32:25 39° 41° (NE) 619 - -44.7°
Drops below altitude 10° 03:35:29 10° 112° (ESE) 1,444 - -44.0°
Sets 03:37:38 0° 121° (ESE) 2,299 - -43.6°
